DO5DHA-11 Weather Reports


Display with metric or nautical units.
time (UTC)temp
F
wind
direction
speed
MPH
gust
MPH
rain 1hr
in
rain 24hr
in
rain mn
in
humidity
%
barometer
mb
20260504001904 57 180 0.0 0.0 0.00 0.00 0.00 56 1013.2
20260504001404 57 180 0.0 0.0 0.00 0.00 0.00 55 1013.2
20260504000904 57 180 0.0 0.0 0.00 0.00 0.00 55 1013.4
20260504000404 57 180 0.0 0.0 0.00 0.00 0.00 55 1013.2
20260503235904 58 180 0.0 0.0 0.00 0.00 0.00 55 1013.2
20260503235404 58 180 0.0 0.0 0.00 0.00 0.00 54 1013.2
20260503234904 58 180 0.0 0.0 0.00 0.00 0.00 54 1013.4
20260503234404 58 180 0.0 0.0 0.00 0.00 0.00 53 1013.2
20260503233904 58 180 0.0 0.0 0.00 0.00 0.00 52 1013.2
20260503233404 59 180 0.0 0.0 0.00 0.00 0.00 52 1013.2
20260503232904 59 180 0.0 0.0 0.00 0.00 0.00 52 1013.2
20260503232404 59 180 0.0 0.0 0.00 0.00 0.00 51 1013.0
20260503231904 60 180 0.0 0.0 0.00 0.00 0.00 51 1013.0
20260503231404 60 180 0.0 0.0 0.00 0.00 0.00 51 1013.0
20260503230904 60 180 0.0 0.0 0.00 0.00 0.00 50 1013.0
20260503230404 60 180 0.0 0.0 0.00 0.00 0.00 50 1013.0
20260503225905 61 180 0.0 0.0 0.00 0.00 0.00 49 1013.0
20260503225404 61 180 0.0 0.0 0.00 0.00 0.00 49 1013.2
20260503224904 61 180 0.0 0.0 0.00 0.00 0.00 49 1013.0
20260503224404 62 180 0.0 0.0 0.00 0.00 0.00 48 1013.0
20260503223904 62 180 0.0 0.0 0.00 0.00 0.00 48 1013.0
20260503223404 62 180 0.0 0.0 0.00 0.00 0.00 47 1012.9
20260503222904 62 180 0.0 0.0 0.00 0.00 0.00 46 1012.7
20260503222404 62 180 0.0 0.0 0.00 0.00 0.00 45 1012.9
20260503221904 62 202 0.0 0.0 0.00 0.00 0.00 45 1012.7
20260503221404 62 180 0.0 0.0 0.00 0.00 0.00 45 1012.9
20260503220904 62 180 0.0 0.0 0.00 0.00 0.00 44 1012.9
20260503220404 62 180 0.0 0.0 0.00 0.00 0.00 44 1012.9
20260503215904 62 180 0.0 0.0 0.00 0.00 0.00 44 1012.7
20260503215404 62 180 0.0 0.0 0.00 0.00 0.00 43 1012.9
20260503214904 63 180 0.0 0.0 0.00 0.00 0.00 43 1013.0
20260503214404 63 180 0.0 0.0 0.00 0.00 0.00 43 1013.0
20260503213904 63 180 0.0 0.0 0.00 0.00 0.00 43 1013.0
20260503213404 63 180 0.0 0.0 0.00 0.00 0.00 43 1013.0
20260503212904 63 180 0.0 0.0 0.00 0.00 0.00 43 1013.0
20260503212404 63 180 0.0 0.0 0.00 0.00 0.00 43 1012.7
20260503211904 63 180 0.0 0.0 0.00 0.00 0.00 43 1012.7
20260503211404 63 180 0.0 0.0 0.00 0.00 0.00 43 1012.7
20260503210904 63 180 0.0 0.0 0.00 0.00 0.00 43 1012.7
20260503210404 63 180 0.0 0.0 0.00 0.00 0.00 43 1012.7
20260503205904 63 202 0.0 0.0 0.00 0.00 0.00 42 1012.5
20260503205404 63 180 0.0 0.0 0.00 0.00 0.00 42 1012.5
20260503204904 63 180 2.0 0.0 0.00 0.00 0.00 42 1012.7
20260503204404 64 202 0.0 0.0 0.00 0.00 0.00 42 1012.7
20260503203904 64 180 0.0 0.0 0.00 0.00 0.00 42 1012.7
20260503203404 64 180 0.0 0.0 0.00 0.00 0.00 42 1012.7
20260503202904 64 180 0.0 0.0 0.00 0.00 0.00 42 1012.7
20260503202404 64 180 0.0 0.0 0.00 0.00 0.00 42 1012.7
20260503201904 64 180 0.0 0.0 0.00 0.00 0.00 42 1012.7
20260503201404 64 180 0.0 0.0 0.00 0.00 0.00 42 1012.7
20260503200904 64 180 0.0 0.0 0.00 0.00 0.00 42 1012.7
20260503200404 64 180 0.0 0.0 0.00 0.00 0.00 42 1012.7
20260503195904 64 180 0.0 0.0 0.00 0.00 0.00 43 1012.7
20260503195404 64 180 0.0 0.0 0.00 0.00 0.00 43 1012.7
20260503194904 64 180 0.0 0.0 0.00 0.00 0.00 43 1012.7
20260503194404 64 180 0.0 0.0 0.00 0.00 0.00 43 1012.7
20260503193904 64 180 0.0 0.0 0.00 0.00 0.00 42 1012.7
20260503193404 64 157 0.0 0.0 0.00 0.00 0.00 42 1012.5
20260503192904 64 180 0.0 0.0 0.00 0.00 0.00 42 1012.4
20260503192404 64 180 0.0 0.0 0.00 0.00 0.00 42 1012.5
20260503191904 64 157 0.0 0.0 0.00 0.00 0.00 42 1012.5
20260503191404 64 202 0.0 0.0 0.00 0.00 0.00 42 1012.5
20260503190904 64 180 0.0 0.0 0.00 0.00 0.00 41 1012.5
20260503190404 64 180 0.0 0.0 0.00 0.00 0.00 41 1012.7
20260503185904 64 180 0.0 0.0 0.00 0.00 0.00 41 1012.7
20260503185404 65 180 0.0 0.0 0.00 0.00 0.00 41 1012.7
20260503184904 65 180 0.0 0.0 0.00 0.00 0.00 40 1012.7
20260503184404 65 135 0.0 0.0 0.00 0.00 0.00 40 1012.7
20260503183904 65 180 0.0 0.0 0.00 0.00 0.00 39 1012.7
20260503183404 65 157 6.0 0.0 0.00 0.00 0.00 39 1012.7
20260503182904 66 270 0.0 0.0 0.00 0.00 0.00 38 1012.7
20260503182404 66 180 0.0 0.0 0.00 0.00 0.00 38 1012.7
20260503181904 66 202 2.0 0.0 0.00 0.00 0.00 37 1012.7
20260503181404 66 180 1.0 0.0 0.00 0.00 0.00 37 1012.5
20260503180904 66 225 3.0 0.0 0.00 0.00 0.00 36 1012.5
20260503180404 66 180 0.0 0.0 0.00 0.00 0.00 36 1012.5
20260503175904 67 202 0.0 0.0 0.00 0.00 0.00 35 1012.5
20260503175404 67 225 0.0 0.0 0.00 0.00 0.00 35 1012.5
20260503174904 67 180 1.0 0.0 0.00 0.00 0.00 35 1012.5
20260503174404 67 180 5.0 0.0 0.00 0.00 0.00 35 1012.5
20260503173904 67 180 9.0 0.0 0.00 0.00 0.00 34 1012.5
20260503173404 68 180 0.0 0.0 0.00 0.00 0.00 34 1012.5
20260503172904 68 247 2.0 0.0 0.00 0.00 0.00 35 1012.5
20260503172404 68 202 1.0 0.0 0.00 0.00 0.00 34 1012.4
20260503171904 68 180 0.0 0.0 0.00 0.00 0.00 34 1012.5
20260503171404 68 180 0.0 0.0 0.00 0.00 0.00 34 1012.5
20260503170904 69 180 0.0 0.0 0.00 0.00 0.00 34 1012.4
20260503170404 69 180 8.0 0.0 0.00 0.00 0.00 34 1012.4
20260503150904 76 180 3.0 0.0 0.00 0.00 0.00 32 1010.9
20260503150404 76 180 0.0 0.0 0.00 0.00 0.00 32 1011.0
20260503131404 80 180 0.0 0.0 0.00 0.00 0.00 32 1012.0
20260503130904 80 180 0.0 0.0 0.00 0.00 0.00 32 1012.0
20260503130404 79 202 0.0 0.0 0.00 0.00 0.00 32 1012.0
20260503110404 73 337 0.0 0.0 0.00 0.00 0.00 37 1012.5
20260503090404 75 157 0.0 0.0 0.00 0.00 0.00 37 1013.5
20260503081404 69 202 0.0 0.0 0.00 0.00 0.00 42 1013.9
20260503080904 68 157 0.0 0.0 0.00 0.00 0.00 41 1013.9
20260503080404 68 180 0.0 0.0 0.00 0.00 0.00 42 1013.9
20260503072904 66 180 0.0 0.0 0.00 0.00 0.00 46 1014.0
20260503072404 66 180 0.0 0.0 0.00 0.00 0.00 47 1014.0
20260503071904 65 202 0.0 0.0 0.00 0.00 0.00 47 1014.0
20260503071404 64 180 0.0 0.0 0.00 0.00 0.00 49 1014.0
20260503070904 63 180 0.0 0.0 0.00 0.00 0.00 51 1014.2
20260503070404 62 180 4.0 0.0 0.00 0.00 0.00 54 1014.2
20260503054904 57 135 0.0 0.0 0.00 0.00 0.00 66 1014.5
20260503054404 56 135 0.0 0.0 0.00 0.00 0.00 67 1014.7
20260503053904 56 135 0.0 0.0 0.00 0.00 0.00 66 1014.7
20260503053404 56 202 0.0 0.0 0.00 0.00 0.00 66 1014.7
20260503052904 56 202 0.0 0.0 0.00 0.00 0.00 66 1014.4
20260503052404 56 202 0.0 0.0 0.00 0.00 0.00 66 1014.4
20260503051904 56 202 0.0 0.0 0.00 0.00 0.00 66 1014.4
20260503051404 56 202 0.0 0.0 0.00 0.00 0.00 66 1014.5
20260503050904 56 202 0.0 0.0 0.00 0.00 0.00 67 1014.2
20260503050404 56 202 0.0 0.0 0.00 0.00 0.00 67 1014.4
20260503045904 56 202 0.0 0.0 0.00 0.00 0.00 67 1014.2
20260503045404 56 202 0.0 0.0 0.00 0.00 0.00 67 1014.2
20260503044904 55 202 0.0 0.0 0.00 0.00 0.00 67 1014.2
20260503044404 55 202 0.0 0.0 0.00 0.00 0.00 67 1014.2
20260503043904 56 202 0.0 0.0 0.00 0.00 0.00 67 1014.2
20260503043404 56 202 0.0 0.0 0.00 0.00 0.00 66 1014.2
20260503042904 55 202 0.0 0.0 0.00 0.00 0.00 66 1014.2
20260503042404 55 202 0.0 0.0 0.00 0.00 0.00 66 1014.2
20260503041904 55 202 0.0 0.0 0.00 0.00 0.00 66 1014.2
20260503041404 55 202 0.0 0.0 0.00 0.00 0.00 66 1014.0
20260503040904 55 202 0.0 0.0 0.00 0.00 0.00 66 1014.2
20260503040404 55 202 0.0 0.0 0.00 0.00 0.00 66 1014.2
20260503035904 55 202 0.0 0.0 0.00 0.00 0.00 66 1014.2
20260503035404 55 225 0.0 0.0 0.00 0.00 0.00 66 1014.0
20260503034904 55 202 0.0 0.0 0.00 0.00 0.00 66 1014.0
20260503034404 55 180 0.0 0.0 0.00 0.00 0.00 66 1014.0
20260503033904 55 180 0.0 0.0 0.00 0.00 0.00 66 1014.2
20260503033404 55 180 0.0 0.0 0.00 0.00 0.00 66 1014.0
20260503032904 55 180 0.0 0.0 0.00 0.00 0.00 65 1014.0
20260503032404 55 180 0.0 0.0 0.00 0.00 0.00 65 1014.0
20260503031904 55 180 0.0 0.0 0.00 0.00 0.00 65 1014.0
20260503031404 55 180 0.0 0.0 0.00 0.00 0.00 65 1014.0
20260503030904 55 180 0.0 0.0 0.00 0.00 0.00 65 1014.2
20260503030404 55 180 0.0 0.0 0.00 0.00 0.00 65 1014.2
20260503025904 55 180 0.0 0.0 0.00 0.00 0.00 65 1014.2
20260503025404 55 180 0.0 0.0 0.00 0.00 0.00 65 1014.2
20260503024904 55 180 0.0 0.0 0.00 0.00 0.00 65 1014.2
20260503024404 55 180 0.0 0.0 0.00 0.00 0.00 65 1014.2
20260503023904 55 180 0.0 0.0 0.00 0.00 0.00 65 1014.2
20260503023404 55 180 0.0 0.0 0.00 0.00 0.00 65 1014.2
20260503022904 55 180 0.0 0.0 0.00 0.00 0.00 65 1014.2
20260503022404 55 180 0.0 0.0 0.00 0.00 0.00 65 1014.2
20260503021904 55 180 0.0 0.0 0.00 0.00 0.00 65 1014.2
20260503021404 55 180 0.0 0.0 0.00 0.00 0.00 65 1014.2
20260503020904 55 180 0.0 0.0 0.00 0.00 0.00 65 1014.2
20260503020404 55 180 0.0 0.0 0.00 0.00 0.00 65 1014.2
20260503015904 55 180 0.0 0.0 0.00 0.00 0.00 65 1014.2
20260503015404 56 180 0.0 0.0 0.00 0.00 0.00 65 1014.4
20260503014904 56 180 0.0 0.0 0.00 0.00 0.00 65 1014.5
20260503014404 56 180 0.0 0.0 0.00 0.00 0.00 65 1014.5
20260503013904 56 180 0.0 0.0 0.00 0.00 0.00 65 1014.4
20260503013404 56 180 0.0 0.0 0.00 0.00 0.00 65 1014.2
20260503012904 56 225 0.0 0.0 0.00 0.00 0.00 65 1014.5
20260503012404 56 202 0.0 0.0 0.00 0.00 0.00 65 1014.5
20260503011904 56 202 0.0 0.0 0.00 0.00 0.00 64 1014.2
20260503011404 57 202 0.0 0.0 0.00 0.00 0.00 64 1014.4
20260503010904 57 202 0.0 0.0 0.00 0.00 0.00 64 1014.5
20260503010404 57 202 0.0 0.0 0.00 0.00 0.00 64 1014.7
20260503005904 57 202 0.0 0.0 0.00 0.00 0.00 64 1014.7
20260503005404 57 202 0.0 0.0 0.00 0.00 0.00 64 1014.7
20260503004904 57 202 0.0 0.0 0.00 0.00 0.00 64 1014.7
20260503004404 57 202 0.0 0.0 0.00 0.00 0.00 64 1014.7
20260503003904 57 202 0.0 0.0 0.00 0.00 0.00 64 1014.7
20260503003404 57 202 0.0 0.0 0.00 0.00 0.00 64 1014.7
20260503002904 58 202 0.0 0.0 0.00 0.00 0.00 64 1014.7
20260503002404 58 202 0.0 0.0 0.00 0.00 0.00 64 1014.7